Weather History for CWRU - November, 2012

Change the Weather History Date:

Saturday, November 10, 2012

  Actual Average Record
Temperature  
Mean Temperature 41 °F -  
Max Temperature 45 °F - - ()
Min Temperature 37 °F - - ()
Degree Days  
Heating Degree Days 24    
Moisture  
Dew Point 32 °F    
Average Humidity 64    
Maximum Humidity 81    
Minimum Humidity 41    
Precipitation  
Precipitation 0.00 in - - ()
Sea Level Pressure  
Sea Level Pressure 30.02 in    
Wind  
Wind Speed 15 mph ()    
Max Wind Speed 46 mph    
Max Gust Speed 56 mph    
T = Trace of Precipitation, MM = Missing Value Source: Averaged Metar Reports

Daily Weather History Graph

Daily Weather History Graph

Search for Another Location

Airport or City:

Trip Planner

Search our weather history database for the weather conditions in past years. The results will help you decide how hot, cold, wet, or windy it might be!

Date:

Astronomy

Nov. 10, 2012 Rise Set
Actual Time 7:37 AM PST 4:53 PM PST
Civil Twilight 7:02 AM PST 5:28 PM PST
Nautical Twilight 6:23 AM PST 6:07 PM PST
Astronomical Twilight 5:45 AM PST 6:45 PM PST
Moon 3:30 AM PST (11/10) 2:59 PM PST (11/10)
Length of Visible Light 10h 25m
Length of Day
9h 15m
Waning Crescent, 13% of the Moon is Illuminated
Nov 10
Waning Crescent
Nov 13
New
Nov 20
First Quarter
Nov 28
Full
Dec 6
Last Quarter

Hourly Weather History & Observations

Time (PST) Temp. Windchill Dew Point Humidity Pressure Visibility Wind Dir Wind Speed Gust Speed Precip Events Conditions
12:00 AM 38.5 °F 31.6 °F 28.8 °F 68% 30.00 in - North 10.4 mph - N/A   Unknown
1:00 AM 39.2 °F 32.5 °F 27.9 °F 64% 30.00 in - North 10.4 mph - N/A   Unknown
2:00 AM 38.3 °F 32.5 °F 28.0 °F 67% 30.01 in - NNE 8.1 mph - N/A   Unknown
3:00 AM 40.8 °F 37.8 °F 27.3 °F 59% 30.01 in - SSE 4.6 mph - N/A   Unknown
4:00 AM 40 °F - 25 °F 41% 30.01 in - ESE 8.1 mph - -  
4:00 AM 40.3 °F 34.9 °F 24.6 °F 54% 30.01 in - ESE 8.1 mph - N/A   Unknown
5:00 AM 40.3 °F 33.9 °F 23.0 °F 50% 30.02 in - ESE 10.4 mph - N/A   Unknown
6:00 AM 40.5 °F 34.6 °F 24.6 °F 53% 30.03 in - East 9.2 mph - N/A   Unknown
7:00 AM 40.1 °F 33.6 °F 25.0 °F 55% 30.03 in - East 10.4 mph - N/A   Unknown
8:00 AM 40.1 °F 33.2 °F 27.0 °F 59% 30.05 in - East 11.5 mph - N/A   Unknown
9:00 AM 42.3 °F 35.5 °F 30.2 °F 62% 30.06 in - East 12.7 mph - N/A   Unknown
10:00 AM 44 °F - 34 °F 57% 30.06 in - East 13.8 mph - -  
10:00 AM 44.1 °F 37.4 °F 33.6 °F 67% 30.06 in - East 13.8 mph - N/A   Unknown
11:00 AM 44.4 °F 36.9 °F 31.8 °F 61% 30.07 in - East 17.3 mph - N/A   Unknown
12:00 PM 44.2 °F 35.9 °F 31.5 °F 61% 30.06 in - East 20.7 mph 27.6 mph N/A   Unknown
1:00 PM 44.2 °F 35.0 °F 35.4 °F 71% 30.05 in - East 25.3 mph - N/A   Unknown
2:00 PM 45.0 °F 35.1 °F 37.2 °F 74% 30.04 in - ESE 31.1 mph 38.0 mph N/A   Unknown
3:00 PM 45.5 °F 37.3 °F 35.8 °F 69% 30.05 in - SE 21.9 mph 34.5 mph N/A   Unknown
4:00 PM 45 °F - 36 °F 62% 30.05 in - SE 23.0 mph - -  
4:00 PM 45.3 °F 36.9 °F 36.1 °F 70% 30.05 in - SE 23.0 mph 32.2 mph N/A   Unknown
5:00 PM 45.0 °F 36.0 °F 34.9 °F 68% 30.04 in - ESE 25.3 mph 34.5 mph N/A   Unknown
6:00 PM 45.0 °F 35.2 °F 31.5 °F 59% 30.02 in - ESE 29.9 mph 40.3 mph N/A   Unknown
7:00 PM 45.3 °F 34.8 °F 35.4 °F 68% 30.01 in - ESE 36.8 mph 48.3 mph N/A   Unknown
8:00 PM 45.1 °F 34.1 °F 37.0 °F 73% 30.00 in - ESE 40.3 mph 48.3 mph N/A   Unknown
9:00 PM 45.1 °F 33.8 °F 36.7 °F 72% 29.98 in - ESE 42.6 mph 54.1 mph N/A   Unknown
10:00 PM 44 °F - 37 °F 68% 29.97 in - ESE 44.9 mph - -  
10:00 PM 44.4 °F 32.6 °F 37.0 °F 75% 29.97 in - ESE 44.9 mph 52.9 mph N/A   Unknown
11:00 PM 42.1 °F 29.1 °F 36.7 °F 81% 29.97 in - East 46.0 mph 56.4 mph N/A   Unknown